| time (UTC) | temp C | wind direction | speed KPH | gust KPH | rain 1hr cm | rain 24hr cm | rain mn cm | humidity % | barometer mb |
| 20260505114603 | 7 | 0 | 0.0 | 1.6 | 0.00 | 0.00 | 0.00 | 57 | 1007.1 |
| 20260505114045 | 7 | 0 | 0.0 | 1.6 | 0.00 | 0.00 | 0.00 | 54 | 1006.9 |
| 20260505113546 | 7 | 0 | 0.0 | 6.4 | 0.00 | 0.00 | 0.00 | 54 | 1006.7 |
| 20260505113107 | 7 | 0 | 0.0 | 6.4 | 0.00 | 0.00 | 0.00 | 52 | 1006.4 |
| 20260505112548 | 7 | 0 | 0.0 | 4.8 | 0.00 | 0.00 | 0.00 | 52 | 1006.3 |
| 20260505112043 | 7 | 28 | 0.0 | 3.2 | 0.00 | 0.00 | 0.00 | 52 | 1006.5 |
| 20260505111551 | 7 | 0 | 0.0 | 3.2 | 0.00 | 0.00 | 0.00 | 52 | 1006.5 |
| 20260505111043 | 7 | 11 | 0.0 | 4.8 | 0.00 | 0.00 | 0.00 | 52 | 1006.6 |
| 20260505110547 | 7 | 0 | 0.0 | 4.8 | 0.00 | 0.00 | 0.00 | 52 | 1007.0 |
| 20260505102045 | 7 | 0 | 0.0 | 3.2 | 0.00 | 0.00 | 0.00 | 50 | 1005.9 |
| 20260505101607 | 7 | 0 | 0.0 | 3.2 | 0.00 | 0.00 | 0.00 | 51 | 1006.0 |
| 20260505101045 | 7 | 0 | 0.0 | 6.4 | 0.00 | 0.00 | 0.00 | 50 | 1006.2 |
| 20260505100545 | 7 | 0 | 0.0 | 6.4 | 0.00 | 0.00 | 0.00 | 50 | 1006.1 |
| 20260505100105 | 7 | 0 | 1.6 | 11.3 | 0.00 | 0.00 | 0.00 | 51 | 1005.8 |
| 20260505095543 | 7 | 10 | 0.0 | 11.3 | 0.00 | 0.00 | 0.00 | 52 | 1005.6 |
| 20260505095044 | 7 | 11 | 0.0 | 9.7 | 0.00 | 0.00 | 0.00 | 53 | 1005.4 |
| 20260505094553 | 7 | 29 | 1.6 | 11.3 | 0.00 | 0.00 | 0.00 | 53 | 1005.5 |
| 20260505094047 | 7 | 351 | 0.0 | 11.3 | 0.00 | 0.00 | 0.00 | 53 | 1005.7 |
| 20260505093547 | 7 | 0 | 0.0 | 3.2 | 0.00 | 0.00 | 0.00 | 53 | 1005.9 |
| 20260505093104 | 7 | 0 | 0.0 | 4.8 | 0.00 | 0.00 | 0.00 | 54 | 1005.8 |
| 20260505092547 | 7 | 0 | 0.0 | 4.8 | 0.00 | 0.00 | 0.00 | 54 | 1006.0 |
| 20260505092046 | 7 | 304 | 0.0 | 1.6 | 0.00 | 0.00 | 0.00 | 54 | 1006.1 |
| 20260505091554 | 7 | 0 | 0.0 | 1.6 | 0.00 | 0.00 | 0.00 | 54 | 1006.0 |
| 20260505091045 | 7 | 0 | 0.0 | 0.0 | 0.00 | 0.00 | 0.00 | 54 | 1006.0 |
| 20260505090545 | 7 | 0 | 0.0 | 1.6 | 0.00 | 0.00 | 0.00 | 53 | 1005.9 |
| 20260505090101 | 7 | 0 | 0.0 | 8.0 | 0.00 | 0.00 | 0.00 | 53 | 1005.6 |
| 20260505085546 | 8 | 0 | 0.0 | 8.0 | 0.00 | 0.00 | 0.00 | 51 | 1005.4 |
| 20260505085045 | 8 | 0 | 0.0 | 4.8 | 0.00 | 0.00 | 0.00 | 52 | 1005.4 |
| 20260505084557 | 8 | 24 | 0.0 | 3.2 | 0.00 | 0.00 | 0.00 | 52 | 1005.3 |
| 20260505084042 | 8 | 0 | 0.0 | 8.0 | 0.00 | 0.00 | 0.00 | 52 | 1004.9 |
| 20260505083546 | 8 | 25 | 1.6 | 8.0 | 0.00 | 0.00 | 0.00 | 51 | 1004.7 |
| 20260505083053 | 8 | 0 | 0.0 | 12.9 | 0.00 | 0.00 | 0.00 | 51 | 1004.7 |
| 20260505082542 | 8 | 15 | 1.6 | 12.9 | 0.00 | 0.00 | 0.00 | 51 | 1004.3 |
| 20260505082047 | 8 | 360 | 1.6 | 11.3 | 0.00 | 0.00 | 0.00 | 51 | 1004.4 |
| 20260505081604 | 8 | 0 | 3.2 | 11.3 | 0.00 | 0.00 | 0.00 | 51 | 1004.5 |
| 20260505081047 | 9 | 0 | 1.6 | 14.5 | 0.00 | 0.00 | 0.00 | 51 | 1004.4 |
| 20260505080549 | 9 | 39 | 3.2 | 14.5 | 0.00 | 0.00 | 0.00 | 50 | 1004.0 |
| 20260505080059 | 9 | 90 | 3.2 | 11.3 | 0.00 | 0.00 | 0.00 | 51 | 1003.8 |
| 20260505075547 | 9 | 0 | 1.6 | 6.4 | 0.00 | 0.00 | 0.00 | 53 | 1003.8 |
| 20260505075046 | 9 | 0 | 0.0 | 8.0 | 0.00 | 0.00 | 0.00 | 54 | 1003.4 |
| 20260505074550 | 10 | 5 | 1.6 | 8.0 | 0.00 | 0.00 | 0.00 | 54 | 1003.2 |
| 20260505074046 | 10 | 0 | 0.0 | 14.5 | 0.00 | 0.00 | 0.00 | 54 | 1003.1 |
| 20260505073543 | 10 | 0 | 1.6 | 14.5 | 0.00 | 0.00 | 0.00 | 53 | 1003.2 |
| 20260505073100 | 10 | 10 | 0.0 | 6.4 | 0.00 | 0.00 | 0.00 | 53 | 1003.4 |
| 20260505072542 | 10 | 47 | 0.0 | 14.5 | 0.00 | 0.00 | 0.00 | 52 | 1003.3 |
| 20260505072046 | 10 | 0 | 1.6 | 14.5 | 0.00 | 0.00 | 0.00 | 52 | 1003.2 |
| 20260505071555 | 10 | 284 | 0.0 | 12.9 | 0.00 | 0.00 | 0.00 | 53 | 1002.9 |
| 20260505071047 | 10 | 0 | 3.2 | 12.9 | 0.00 | 0.00 | 0.00 | 52 | 1002.9 |
| 20260505070547 | 10 | 13 | 1.6 | 8.0 | 0.00 | 0.00 | 0.00 | 52 | 1002.8 |
| 20260505070057 | 11 | 0 | 0.0 | 8.0 | 0.00 | 0.00 | 0.00 | 52 | 1003.1 |
| 20260505065547 | 11 | 0 | 0.0 | 8.0 | 0.00 | 0.00 | 0.00 | 52 | 1003.0 |
| 20260505065046 | 11 | 360 | 1.6 | 8.0 | 0.00 | 0.00 | 0.00 | 52 | 1002.7 |
| 20260505064550 | 11 | 0 | 0.0 | 6.4 | 0.00 | 0.00 | 0.00 | 53 | 1002.8 |
| 20260505064046 | 11 | 0 | 0.0 | 6.4 | 0.00 | 0.00 | 0.00 | 52 | 1002.4 |
| 20260505063545 | 11 | 57 | 0.0 | 9.7 | 0.00 | 0.00 | 0.00 | 51 | 1002.4 |
| 20260505063105 | 11 | 24 | 1.6 | 9.7 | 0.00 | 0.00 | 0.00 | 50 | 1002.3 |
| 20260505062545 | 12 | 35 | 0.0 | 20.9 | 0.00 | 0.00 | 0.00 | 49 | 1002.3 |
| 20260505062045 | 12 | 0 | 1.6 | 20.9 | 0.00 | 0.00 | 0.00 | 49 | 1002.2 |
| 20260505061552 | 12 | 5 | 3.2 | 20.9 | 0.00 | 0.00 | 0.00 | 48 | 1002.1 |
| 20260505061045 | 12 | 0 | 3.2 | 14.5 | 0.00 | 0.00 | 0.00 | 48 | 1002.2 |
| 20260505060542 | 12 | 37 | 3.2 | 8.0 | 0.00 | 0.00 | 0.00 | 48 | 1002.1 |
| 20260505060056 | 12 | 12 | 0.0 | 8.0 | 0.00 | 0.00 | 0.00 | 48 | 1002.1 |
| 20260505055543 | 12 | 42 | 0.0 | 12.9 | 0.00 | 0.00 | 0.00 | 47 | 1002.2 |
| 20260505055043 | 12 | 0 | 0.0 | 12.9 | 0.00 | 0.00 | 0.00 | 47 | 1002.2 |
| 20260505054552 | 12 | 0 | 1.6 | 12.9 | 0.00 | 0.00 | 0.00 | 46 | 1002.1 |
| 20260505054046 | 13 | 63 | 0.0 | 9.7 | 0.00 | 0.00 | 0.00 | 46 | 1002.0 |
| 20260505053549 | 13 | 30 | 0.0 | 6.4 | 0.00 | 0.00 | 0.00 | 45 | 1001.9 |
| 20260505053056 | 13 | 296 | 0.0 | 6.4 | 0.00 | 0.00 | 0.00 | 45 | 1001.7 |
| 20260505052547 | 13 | 0 | 0.0 | 6.4 | 0.00 | 0.00 | 0.00 | 44 | 1001.6 |
| 20260505052046 | 13 | 0 | 0.0 | 6.4 | 0.00 | 0.00 | 0.00 | 43 | 1001.4 |
| 20260505051549 | 13 | 0 | 0.0 | 4.8 | 0.00 | 0.00 | 0.00 | 43 | 1001.5 |
| 20260505051043 | 13 | 0 | 0.0 | 9.7 | 0.00 | 0.00 | 0.00 | 42 | 1001.3 |
| 20260505050545 | 14 | 0 | 1.6 | 9.7 | 0.00 | 0.00 | 0.00 | 42 | 1001.0 |
| 20260505041554 | 15 | 0 | 0.0 | 6.4 | 0.00 | 0.00 | 0.00 | 38 | 1000.6 |
| 20260505041048 | 15 | 57 | 0.0 | 6.4 | 0.00 | 0.00 | 0.00 | 38 | 1000.5 |
| 20260505040548 | 15 | 0 | 0.0 | 6.4 | 0.00 | 0.00 | 0.00 | 38 | 1000.3 |
| 20260505040056 | 15 | 0 | 0.0 | 11.3 | 0.00 | 0.00 | 0.00 | 39 | 1000.1 |
| 20260505035547 | 15 | 53 | 0.0 | 11.3 | 0.00 | 0.00 | 0.00 | 39 | 999.9 |
| 20260505035043 | 15 | 0 | 0.0 | 6.4 | 0.00 | 0.00 | 0.00 | 39 | 1000.1 |
| 20260505034553 | 16 | 0 | 0.0 | 4.8 | 0.00 | 0.00 | 0.00 | 40 | 999.9 |
| 20260505034048 | 16 | 0 | 0.0 | 4.8 | 0.00 | 0.00 | 0.00 | 42 | 1000.1 |
| 20260505033545 | 16 | 0 | 0.0 | 6.4 | 0.00 | 0.00 | 0.00 | 40 | 1000.0 |
| 20260505033058 | 16 | 0 | 0.0 | 6.4 | 0.00 | 0.00 | 0.00 | 40 | 1000.2 |
| 20260505032547 | 16 | 0 | 1.6 | 6.4 | 0.00 | 0.00 | 0.00 | 40 | 1000.3 |
| 20260505032045 | 16 | 0 | 0.0 | 6.4 | 0.00 | 0.00 | 0.00 | 41 | 1000.3 |
| 20260505031555 | 16 | 0 | 0.0 | 3.2 | 0.00 | 0.00 | 0.00 | 43 | 1000.3 |
| 20260505031047 | 16 | 0 | 0.0 | 4.8 | 0.00 | 0.00 | 0.00 | 42 | 1000.1 |
| 20260505030550 | 16 | 0 | 0.0 | 4.8 | 0.00 | 0.00 | 0.00 | 43 | 999.8 |
| 20260505030055 | 16 | 0 | 0.0 | 4.8 | 0.00 | 0.00 | 0.00 | 43 | 999.8 |
| 20260505025547 | 16 | 0 | 0.0 | 3.2 | 0.00 | 0.00 | 0.00 | 43 | 999.8 |
| 20260505025047 | 17 | 0 | 0.0 | 3.2 | 0.00 | 0.00 | 0.00 | 43 | 999.7 |
| 20260505024554 | 17 | 0 | 0.0 | 3.2 | 0.00 | 0.00 | 0.00 | 42 | 999.7 |
| 20260505024046 | 17 | 0 | 0.0 | 4.8 | 0.00 | 0.00 | 0.00 | 42 | 999.7 |
| 20260505023546 | 17 | 0 | 0.0 | 6.4 | 0.00 | 0.00 | 0.00 | 42 | 999.8 |
| 20260505023054 | 17 | 0 | 0.0 | 11.3 | 0.00 | 0.00 | 0.00 | 41 | 999.5 |
| 20260505022548 | 18 | 16 | 1.6 | 11.3 | 0.00 | 0.00 | 0.00 | 43 | 999.4 |
| 20260505022051 | 18 | 67 | 0.0 | 9.7 | 0.00 | 0.00 | 0.00 | 42 | 999.1 |
| 20260505021600 | 18 | 0 | 0.0 | 11.3 | 0.00 | 0.00 | 0.00 | 42 | 999.0 |
| 20260505021045 | 18 | 329 | 1.6 | 11.3 | 0.00 | 0.00 | 0.00 | 42 | 998.9 |
| 20260505020545 | 18 | 0 | 0.0 | 9.7 | 0.00 | 0.00 | 0.00 | 41 | 998.6 |
| 20260505020054 | 18 | 0 | 0.0 | 6.4 | 0.00 | 0.00 | 0.00 | 42 | 998.6 |
| 20260505015546 | 18 | 325 | 0.0 | 4.8 | 0.00 | 0.00 | 0.00 | 44 | 998.5 |
| 20260505015047 | 19 | 0 | 0.0 | 4.8 | 0.00 | 0.00 | 0.00 | 44 | 998.3 |
| 20260505014558 | 19 | 0 | 0.0 | 4.8 | 0.00 | 0.00 | 0.00 | 44 | 998.2 |
| 20260505014047 | 19 | 330 | 0.0 | 3.2 | 0.00 | 0.00 | 0.00 | 45 | 998.0 |
| 20260505013547 | 19 | 0 | 0.0 | 1.6 | 0.00 | 0.00 | 0.00 | 45 | 997.9 |
| 20260505013053 | 20 | 0 | 0.0 | 6.4 | 0.00 | 0.00 | 0.00 | 44 | 997.6 |
| 20260505012547 | 20 | 0 | 0.0 | 8.0 | 0.00 | 0.00 | 0.00 | 45 | 997.5 |
| 20260505012047 | 20 | 296 | 0.0 | 8.0 | 0.00 | 0.00 | 0.00 | 44 | 997.2 |
| 20260505011552 | 20 | 0 | 0.0 | 8.0 | 0.00 | 0.00 | 0.00 | 44 | 996.9 |
| 20260505011048 | 20 | 0 | 0.0 | 4.8 | 0.00 | 0.00 | 0.00 | 44 | 996.8 |
| 20260505010546 | 20 | 255 | 0.0 | 4.8 | 0.00 | 0.00 | 0.00 | 43 | 996.6 |
| 20260505010109 | 21 | 0 | 0.0 | 4.8 | 0.00 | 0.00 | 0.00 | 44 | 996.5 |
| 20260505005547 | 21 | 29 | 0.0 | 4.8 | 0.00 | 0.00 | 0.00 | 44 | 996.5 |
| 20260505005046 | 21 | 0 | 0.0 | 6.4 | 0.00 | 0.00 | 0.00 | 45 | 996.3 |
| 20260505004550 | 21 | 222 | 0.0 | 6.4 | 0.00 | 0.00 | 0.00 | 45 | 996.0 |
| 20260505004045 | 21 | 215 | 1.6 | 4.8 | 0.00 | 0.00 | 0.00 | 46 | 995.8 |
| 20260505003542 | 21 | 218 | 0.0 | 4.8 | 0.00 | 0.00 | 0.00 | 46 | 995.7 |
| 20260505003059 | 22 | 211 | 1.6 | 4.8 | 0.00 | 0.00 | 0.00 | 45 | 995.4 |
| 20260505002548 | 22 | 217 | 0.0 | 4.8 | 0.00 | 0.00 | 0.00 | 43 | 995.1 |
| 20260505002048 | 22 | 0 | 0.0 | 3.2 | 0.00 | 0.00 | 0.00 | 43 | 995.1 |
| 20260505001552 | 22 | 198 | 0.0 | 4.8 | 0.00 | 0.00 | 0.00 | 40 | 995.0 |
| 20260505001048 | 22 | 0 | 0.0 | 4.8 | 0.00 | 0.00 | 0.00 | 40 | 995.1 |
| 20260505000546 | 22 | 0 | 0.0 | 4.8 | 0.00 | 0.00 | 0.00 | 40 | 995.1 |
| 20260505000052 | 22 | 0 | 0.0 | 6.4 | 0.00 | 0.00 | 0.00 | 40 | 995.2 |
| 20260504235548 | 22 | 0 | 0.0 | 6.4 | 0.00 | 0.00 | 0.00 | 40 | 995.2 |
| 20260504235048 | 22 | 0 | 0.0 | 6.4 | 0.00 | 0.00 | 0.00 | 40 | 995.3 |
| 20260504234554 | 22 | 0 | 0.0 | 4.8 | 0.00 | 0.00 | 0.00 | 39 | 995.2 |
| 20260504234046 | 22 | 215 | 0.0 | 4.8 | 0.00 | 0.00 | 0.00 | 39 | 995.3 |
| 20260504233546 | 22 | 0 | 0.0 | 12.9 | 0.00 | 0.00 | 0.00 | 38 | 995.5 |
| 20260504233056 | 23 | 226 | 0.0 | 16.1 | 0.00 | 0.00 | 0.00 | 39 | 995.5 |
| 20260504232545 | 23 | 213 | 4.8 | 16.1 | 0.00 | 0.00 | 0.00 | 37 | 995.6 |
| 20260504232044 | 23 | 233 | 4.8 | 16.1 | 0.00 | 0.00 | 0.00 | 36 | 995.7 |
| 20260504231557 | 23 | 201 | 6.4 | 29.0 | 0.00 | 0.00 | 0.00 | 35 | 996.0 |
| 20260504231042 | 23 | 221 | 11.3 | 29.0 | 0.00 | 0.00 | 0.00 | 35 | 996.0 |
| 20260504230549 | 23 | 211 | 1.6 | 8.0 | 0.00 | 0.00 | 0.00 | 39 | 995.8 |
| 20260504230122 | 23 | 208 | 1.6 | 8.0 | 0.00 | 0.00 | 0.00 | 37 | 995.8 |
| 20260504225548 | 24 | 213 | 0.0 | 11.3 | 0.00 | 0.00 | 0.00 | 37 | 995.7 |
| 20260504225046 | 24 | 211 | 3.2 | 14.5 | 0.00 | 0.00 | 0.00 | 37 | 995.8 |
| 20260504224550 | 24 | 0 | 1.6 | 14.5 | 0.00 | 0.00 | 0.00 | 36 | 995.8 |
| 20260504224047 | 24 | 209 | 4.8 | 14.5 | 0.00 | 0.00 | 0.00 | 36 | 995.9 |
| 20260504223551 | 24 | 249 | 4.8 | 12.9 | 0.00 | 0.00 | 0.00 | 35 | 995.9 |
| 20260504223100 | 24 | 238 | 4.8 | 12.9 | 0.00 | 0.00 | 0.00 | 37 | 995.8 |
| 20260504222547 | 25 | 209 | 1.6 | 11.3 | 0.00 | 0.00 | 0.00 | 34 | 995.8 |
| 20260504222044 | 25 | 0 | 1.6 | 11.3 | 0.00 | 0.00 | 0.00 | 35 | 995.9 |
| 20260504221603 | 25 | 214 | 4.8 | 12.9 | 0.00 | 0.00 | 0.00 | 35 | 996.0 |
| 20260504221046 | 25 | 219 | 4.8 | 12.9 | 0.00 | 0.00 | 0.00 | 36 | 996.0 |
| 20260504220546 | 24 | 209 | 3.2 | 12.9 | 0.00 | 0.00 | 0.00 | 36 | 996.1 |
| 20260504220057 | 25 | 215 | 1.6 | 6.4 | 0.00 | 0.00 | 0.00 | 34 | 996.1 |
| 20260504215546 | 25 | 0 | 0.0 | 16.1 | 0.00 | 0.00 | 0.00 | 35 | 996.1 |
| 20260504215047 | 24 | 0 | 3.2 | 20.9 | 0.00 | 0.00 | 0.00 | 35 | 996.2 |
| 20260504214600 | 24 | 208 | 8.0 | 20.9 | 0.00 | 0.00 | 0.00 | 32 | 996.2 |
| 20260504214046 | 25 | 220 | 4.8 | 27.4 | 0.00 | 0.00 | 0.00 | 36 | 996.3 |
| 20260504213547 | 25 | 259 | 6.4 | 27.4 | 0.00 | 0.00 | 0.00 | 34 | 996.2 |
| 20260504213103 | 25 | 208 | 6.4 | 24.1 | 0.00 | 0.00 | 0.00 | 33 | 996.2 |
| 20260504212547 | 25 | 220 | 6.4 | 24.1 | 0.00 | 0.00 | 0.00 | 33 | 996.3 |
| 20260504212046 | 25 | 221 | 4.8 | 22.5 | 0.00 | 0.00 | 0.00 | 33 | 996.4 |
| 20260504211551 | 25 | 182 | 4.8 | 22.5 | 0.00 | 0.00 | 0.00 | 34 | 996.3 |
| 20260504211047 | 25 | 233 | 3.2 | 14.5 | 0.00 | 0.00 | 0.00 | 35 | 996.4 |
| 20260504210545 | 25 | 227 | 8.0 | 14.5 | 0.00 | 0.00 | 0.00 | 36 | 996.6 |
| 20260504210054 | 25 | 183 | 3.2 | 14.5 | 0.00 | 0.00 | 0.00 | 33 | 996.6 |
| 20260504205548 | 25 | 0 | 3.2 | 14.5 | 0.00 | 0.00 | 0.00 | 34 | 996.7 |
| 20260504205046 | 25 | 187 | 6.4 | 14.5 | 0.00 | 0.00 | 0.00 | 32 | 996.7 |
| 20260504204559 | 26 | 217 | 4.8 | 16.1 | 0.00 | 0.00 | 0.00 | 33 | 996.7 |
| 20260504204048 | 26 | 257 | 3.2 | 19.3 | 0.00 | 0.00 | 0.00 | 33 | 996.7 |
| 20260504203548 | 25 | 227 | 8.0 | 27.4 | 0.00 | 0.00 | 0.00 | 34 | 996.9 |
| 20260504203054 | 25 | 229 | 11.3 | 27.4 | 0.00 | 0.00 | 0.00 | 34 | 996.8 |
| 20260504202548 | 26 | 221 | 6.4 | 19.3 | 0.00 | 0.00 | 0.00 | 32 | 997.0 |
| 20260504202046 | 26 | 216 | 8.0 | 17.7 | 0.00 | 0.00 | 0.00 | 30 | 997.0 |
| 20260504201554 | 26 | 234 | 4.8 | 16.1 | 0.00 | 0.00 | 0.00 | 34 | 997.0 |
| 20260504201047 | 26 | 223 | 3.2 | 12.9 | 0.00 | 0.00 | 0.00 | 32 | 997.3 |
| 20260504200546 | 26 | 257 | 4.8 | 14.5 | 0.00 | 0.00 | 0.00 | 32 | 997.3 |
| 20260504200052 | 25 | 194 | 4.8 | 19.3 | 0.00 | 0.00 | 0.00 | 31 | 997.2 |
| 20260504195546 | 25 | 209 | 6.4 | 19.3 | 0.00 | 0.00 | 0.00 | 33 | 997.2 |
| 20260504195047 | 25 | 199 | 8.0 | 19.3 | 0.00 | 0.00 | 0.00 | 33 | 997.2 |
| 20260504194556 | 25 | 215 | 9.7 | 22.5 | 0.00 | 0.00 | 0.00 | 35 | 997.4 |
| 20260504194047 | 25 | 249 | 6.4 | 22.5 | 0.00 | 0.00 | 0.00 | 32 | 997.4 |
| 20260504193548 | 25 | 215 | 8.0 | 25.7 | 0.00 | 0.00 | 0.00 | 32 | 997.4 |
| 20260504193050 | 25 | 248 | 9.7 | 25.7 | 0.00 | 0.00 | 0.00 | 34 | 997.4 |
| 20260504192546 | 25 | 199 | 11.3 | 25.7 | 0.00 | 0.00 | 0.00 | 32 | 997.4 |
| 20260504192047 | 25 | 184 | 6.4 | 19.3 | 0.00 | 0.00 | 0.00 | 32 | 997.5 |
| 20260504191601 | 25 | 271 | 6.4 | 17.7 | 0.00 | 0.00 | 0.00 | 30 | 997.5 |
| 20260504191044 | 25 | 262 | 6.4 | 22.5 | 0.00 | 0.00 | 0.00 | 32 | 997.6 |
| 20260504190544 | 24 | 204 | 11.3 | 22.5 | 0.00 | 0.00 | 0.00 | 35 | 997.5 |
| 20260504190050 | 25 | 211 | 11.3 | 22.5 | 0.00 | 0.00 | 0.00 | 30 | 997.5 |
| 20260504185543 | 25 | 209 | 8.0 | 24.1 | 0.00 | 0.00 | 0.00 | 32 | 997.7 |
| 20260504185042 | 25 | 252 | 6.4 | 24.1 | 0.00 | 0.00 | 0.00 | 35 | 997.6 |
| 20260504184550 | 24 | 259 | 11.3 | 24.1 | 0.00 | 0.00 | 0.00 | 36 | 997.8 |
| 20260504184044 | 25 | 224 | 11.3 | 24.1 | 0.00 | 0.00 | 0.00 | 31 | 997.8 |
| 20260504183546 | 25 | 232 | 6.4 | 20.9 | 0.00 | 0.00 | 0.00 | 35 | 997.9 |
| 20260504183053 | 25 | 264 | 6.4 | 16.1 | 0.00 | 0.00 | 0.00 | 35 | 998.0 |
| 20260504182545 | 24 | 192 | 4.8 | 16.1 | 0.00 | 0.00 | 0.00 | 35 | 998.0 |
| 20260504182047 | 24 | 217 | 8.0 | 24.1 | 0.00 | 0.00 | 0.00 | 37 | 998.0 |
| 20260504181552 | 24 | 208 | 6.4 | 24.1 | 0.00 | 0.00 | 0.00 | 36 | 998.1 |
| 20260504181045 | 23 | 231 | 8.0 | 17.7 | 0.00 | 0.00 | 0.00 | 33 | 998.2 |
| 20260504180547 | 23 | 208 | 9.7 | 29.0 | 0.00 | 0.00 | 0.00 | 35 | 998.1 |
| 20260504180055 | 23 | 211 | 8.0 | 29.0 | 0.00 | 0.00 | 0.00 | 35 | 998.2 |
| 20260504175548 | 23 | 204 | 8.0 | 20.9 | 0.00 | 0.00 | 0.00 | 34 | 998.1 |
| 20260504175048 | 23 | 217 | 8.0 | 29.0 | 0.00 | 0.00 | 0.00 | 34 | 998.3 |
| 20260504174550 | 23 | 245 | 8.0 | 29.0 | 0.00 | 0.00 | 0.00 | 37 | 998.3 |
| 20260504174043 | 23 | 214 | 4.8 | 22.5 | 0.00 | 0.00 | 0.00 | 34 | 998.4 |
| 20260504173545 | 23 | 263 | 9.7 | 24.1 | 0.00 | 0.00 | 0.00 | 37 | 998.6 |
| 20260504173052 | 23 | 184 | 11.3 | 24.1 | 0.00 | 0.00 | 0.00 | 37 | 998.6 |
| 20260504172542 | 23 | 191 | 6.4 | 20.9 | 0.00 | 0.00 | 0.00 | 35 | 998.7 |
| 20260504172048 | 23 | 188 | 8.0 | 20.9 | 0.00 | 0.00 | 0.00 | 34 | 998.9 |
| 20260504171558 | 22 | 198 | 8.0 | 22.5 | 0.00 | 0.00 | 0.00 | 39 | 998.9 |
| 20260504171044 | 22 | 212 | 12.9 | 25.7 | 0.00 | 0.00 | 0.00 | 36 | 999.0 |
| 20260504170548 | 22 | 203 | 8.0 | 25.7 | 0.00 | 0.00 | 0.00 | 35 | 998.9 |
| 20260504151048 | 21 | 217 | 8.0 | 17.7 | 0.00 | 0.00 | 0.00 | 38 | 1000.5 |
| 20260504150547 | 20 | 237 | 8.0 | 20.9 | 0.00 | 0.00 | 0.00 | 37 | 1000.5 |
| 20260504150108 | 20 | 194 | 11.3 | 20.9 | 0.00 | 0.00 | 0.00 | 42 | 1000.4 |
| 20260504141045 | 17 | 231 | 6.4 | 16.1 | 0.00 | 0.00 | 0.00 | 51 | 1000.9 |
| 20260504140545 | 17 | 190 | 8.0 | 16.1 | 0.00 | 0.00 | 0.00 | 52 | 1001.0 |
| 20260504130543 | 13 | 211 | 4.8 | 11.3 | 0.00 | 0.00 | 0.00 | 65 | 1001.6 |